This is the latest recevied weather packets stored in our database for station/object KD7CTY. If no packets are shown the sender has not sent any weather packets the latest 10 day(s).
| Time | Temp. | Humidity | Pressure | Rain* | Wind** | Luminosity | Snow |
|---|---|---|---|---|---|---|---|
| 1777181367 | 9.44° C | 50% | 1007.9 hPa | 0 mm | - | 0 W/m² | - |
| 1777181062 | 9.44° C | 50% | 1008.1 hPa | 0 mm | - | 0 W/m² | - |
| 1777180757 | 9.44° C | 55% | 1008.4 hPa | 0 mm | - | 0 W/m² | - |
| 1777180455 | 9.44° C | 54% | 1008.1 hPa | 0 mm | - | 0 W/m² | - |
| 1777180151 | 9.44° C | 53% | 1008.1 hPa | 0 mm | - | 0 W/m² | - |
| 1777179846 | 9.44° C | 56% | 1008.1 hPa | 0 mm | - | 0 W/m² | - |
| 1777179543 | 9.44° C | 57% | 1008.1 hPa | 0 mm | - | 0 W/m² | - |
| 1777179242 | 9.44° C | 58% | 1008.4 hPa | 0 mm | - | 0 W/m² | - |
| 1777178937 | 8.89° C | 55% | 1008.2 hPa | 0 mm | - | 0 W/m² | - |
| 1777178635 | 8.89° C | 54% | 1008.3 hPa | 0 mm | - | 0 W/m² | - |
| 1777178330 | 9.44° C | 56% | 1008.1 hPa | 0 mm | - | 0 W/m² | - |
| 1777178030 | 9.44° C | 55% | 1008.3 hPa | 0 mm | - | 0 W/m² | - |
| 1777177729 | 9.44° C | 54% | 1008.4 hPa | 0 mm | - | 0 W/m² | - |
| 1777177425 | 10° C | 54% | 1008.4 hPa | 0 mm | - | 0 W/m² | - |
| 1777177121 | 9.44° C | 54% | 1008.5 hPa | 0 mm | - | 0 W/m² | - |
| 1777176818 | 10° C | 55% | 1008.2 hPa | 0 mm | - | 0 W/m² | - |
| 1777176515 | 10° C | 54% | 1008.3 hPa | 0 mm | - | 0 W/m² | - |
| 1777176211 | 10° C | 50% | 1008.2 hPa | 0 mm | - | 0 W/m² | - |
| 1777175910 | 10° C | 48% | 1008.2 hPa | 0 mm | - | 0 W/m² | - |
| 1777175605 | 10.56° C | 48% | 1008.1 hPa | 0 mm | - | 0 W/m² | - |
| 1777175305 | 11.11° C | 47% | 1007.9 hPa | 0 mm | - | 0 W/m² | - |
| 1777175001 | 11.67° C | 44% | 1008.2 hPa | 0 mm | - | 0 W/m² | - |
| 1777174698 | 11.67° C | 43% | 1008.1 hPa | 0 mm | - | 0 W/m² | - |
| 1777174393 | 11.67° C | 41% | 1008 hPa | 0 mm | - | 0 W/m² | - |
| 1777174088 | 12.22° C | 42% | 1008.1 hPa | 0 mm | - | 0 W/m² | - |
* Rain latest hour (hover to see other rain measurements)
** Current wind speed in m/s (hover to see current wind gust speed)